Temp
-15 -15 -13 -13 -14 -14 -14 -13 -12 -12 -12 -13 -12 -12 -11 -11 -11 -11 -12 -11 -11 -10 -10 -9 -10 -9 -9 -9 -9 -9 -10 -10 -10 -10 -10 -9 -9 -9 -8 -8 -9 -9 -9 -9
-16 -15 -14 -16 -15 -15 -15 -15 -13 -13 -13 -14 -13 -12 -11 -12 -12 -11 -12 -12 -11 -11 -10 -10 -10 -10 -10 -10 -8 -10 -10 -10 -10 -10 -10 -10 -10 -9 -9 -9 -9 -9 -9 -10
-17 -15 -17 -16 -16 -16 -16 -15 -15 -14 -15 -15 -15 -13 -12 -12 -12 -12 -12 -12 -12 -11 -10 -11 -10 -10 -10 -10 -10 -10 -10 -10 -10 -10 -10 -10 -10 -10 -10 -10 -10 -10 -10 -10
-19 -18 -18 -18 -17 -17 -17 -16 -17 -17 -16 -15 -16 -15 -13 -12 -12 -13 -12 -12 -12 -12 -11 -11 -11 -12 -12 -11 -12 -10 -11 -10 -10 -10 -10 -10 -11 -10 -10 -10 -9 -10 -10 -10
-18 -18 -19 -19 -18 -18 -18 -18 -18 -18 -17 -17 -16 -16 -14 -13 -13 -13 -13 -13 -13 -13 -12 -12 -12 -13 -12 -12 -11 -13 -12 -11 -11 -10 -10 -10 -10 -11 -11 -10 -10 -10 -10 -10
-19 -19 -20 -19 -19 -19 -19 -19 -19 -19 -18 -18 -16 -16 -15 -13 -14 -14 -13 -13 -13 -13 -13 -13 -13 -14 -12 -12 -12 -13 -13 -12 -14 -13 -11 -11 -11 -11 -11 -11 -11 -10 -10 -10
-20 -19 -19 -19 -19 -20 -19 -19 -19 -19 -19 -19 -17 -17 -16 -14 -14 -14 -13 -13 -13 -13 -13 -13 -13 -13 -13 -12 -13 -13 -13 -13 -14 -12 -12 -11 -11 -11 -11 -11 -11 -11 -10 -10
-20 -20 -20 -19 -19 -20 -20 -20 -20 -20 -19 -18 -18 -18 -16 -15 -15 -14 -14 -14 -14 -14 -14 -13 -12 -13 -13 -13 -13 -13 -13 -13 -14 -14 -13 -12 -11 -11 -11 -11 -11 -10 -10 -11
-20 -20 -20 -20 -20 -20 -20 -20 -20 -21 -20 -20 -19 -18 -17 -16 -15 -15 -15 -15 -15 -14 -14 -14 -13 -13 -14 -14 -13 -13 -13 -13 -14 -14 -13 -12 -11 -11 -11 -11 -11 -10 -11 -11
-21 -21 -21 -21 -21 -21 -20 -20 -21 -21 -21 -20 -19 -19 -17 -16 -16 -16 -16 -16 -15 -15 -15 -14 -14 -14 -14 -13 -14 -14 -13 -13 -13 -14 -14 -13 -13 -12 -13 -12 -11 -11 -11 -11
-22 -21 -20 -21 -20 -21 -21 -21 -21 -21 -21 -20 -20 -19 -18 -17 -18 -17 -17 -16 -16 -16 -16 -15 -15 -15 -15 -15 -15 -14 -14 -13 -13 -13 -14 -14 -13 -13 -14 -13 -12 -11 -12 -11
-22 -22 -21 -21 -21 -21 -22 -21 -22 -22 -21 -21 -21 -20 -18 -17 -18 -19 -18 -18 -18 -17 -16 -16 -15 -15 -15 -15 -15 -15 -15 -14 -13 -14 -13 -14 -13 -13 -12 -12 -12 -12 -12 -11
-22 -22 -22 -22 -22 -21 -21 -21 -21 -22 -22 -21 -21 -19 -18 -19 -19 -19 -19 -19 -18 -18 -17 -16 -16 -16 -16 -16 -15 -14 -14 -15 -14 -14 -13 -13 -13 -13 -12 -13 -12 -12 -12 -11
-23 -23 -22 -22 -22 -22 -22 -21 -22 -22 -22 -20 -21 -19 -18 -19 -19 -19 -20 -19 -19 -19 -19 -19 -18 -17 -17 -17 -16 -14 -14 -14 -14 -14 -14 -13 -13 -12 -12 -12 -12 -12 -12 -12
-22 -22 -22 -22 -22 -22 -22 -21 -21 -21 -21 -22 -20 -21 -18 -20 -20 -19 -19 -20 -20 -20 -19 -19 -18 -18 -18 -19 -17 -15 -14 -13 -13 -13 -13 -13 -13 -13 -12 -12 -12 -12 -12 -12
-22 -22 -22 -22 -22 -22 -22 -21 -21 -21 -22 -22 -22 -21 -20 -20 -20 -20 -20 -20 -20 -19 -19 -19 -19 -18 -18 -19 -18 -17 -15 -14 -14 -13 -13 -13 -13 -12 -12 -12 -12 -12 -12 -12
-22 -23 -23 -22 -22 -22 -21 -21 -22 -23 -23 -22 -22 -21 -21 -21 -21 -20 -20 -19 -19 -19 -18 -19 -19 -19 -18 -17 -18 -17 -16 -15 -14 -14 -14 -13 -13 -12 -12 -12 -12 -12 -12 -12
-23 -23 -23 -22 -22 -22 -21 -22 -22 -23 -23 -24 -22 -22 -21 -21 -21 -21 -21 -21 -21 -21 -20 -20 -19 -19 -19 -18 -17 -17 -17 -16 -15 -14 -14 -14 -13 -13 -13 -12 -12 -12 -12 -12
-22 -23 -23 -23 -22 -22 -22 -23 -23 -23 -23 -23 -23 -23 -22 -22 -22 -22 -22 -21 -21 -21 -21 -21 -20 -19 -19 -18 -18 -18 -17 -18 -16 -16 -16 -16 -14 -13 -13 -13 -13 -13 -13 -13
-23 -23 -23 -23 -22 -22 -23 -23 -24 -24 -23 -23 -24 -23 -23 -23 -22 -22 -23 -22 -22 -22 -21 -21 -21 -20 -20 -20 -20 -19 -19 -19 -18 -17 -16 -17 -16 -15 -14 -15 -14 -14 -14 -14
-23 -23 -23 -23 -23 -22 -23 -23 -24 -24 -23 -24 -24 -24 -23 -23 -23 -22 -22 -23 -22 -22 -22 -22 -21 -21 -21 -21 -20 -20 -19 -18 -18 -18 -17 -17 -16 -16 -15 -15 -15 -15 -15 -15
-23 -24 -23 -24 -23 -22 -23 -23 -24 -24 -23 -24 -24 -24 -23 -23 -23 -23 -22 -22 -23 -23 -22 -22 -22 -21 -21 -21 -21 -20 -19 -19 -19 -18 -17 -17 -17 -16 -16 -15 -15 -16 -16 -15
-23 -24 -23 -24 -23 -23 -23 -23 -24 -24 -23 -23 -23 -23 -23 -23 -23 -23 -23 -23 -22 -23 -22 -22 -22 -22 -22 -21 -21 -21 -20 -20 -19 -19 -18 -17 -17 -16 -16 -16 -16 -16 -15 -15
-23 -24 -23 -24 -24 -24 -24 -24 -24 -24 -24 -24 -23 -23 -23 -23 -23 -23 -23 -23 -22 -22 -23 -23 -22 -22 -22 -22 -22 -21 -20 -20 -19 -19 -19 -18 -18 -17 -16 -16 -15 -15 -15 -15
-23 -24 -24 -24 -24 -24 -24 -24 -24 -24 -24 -24 -24 -24 -24 -24 -24 -23 -23 -23 -23 -23 -23 -23 -23 -22 -21 -21 -22 -22 -21 -20 -19 -19 -18 -18 -18 -18 -17 -16 -16 -16 -15 -16
-24 -24 -24 -25 -25 -25 -25 -25 -25 -24 -24 -25 -25 -25 -25 -25 -25 -25 -25 -25 -24 -24 -24 -23 -23 -22 -22 -21 -21 -21 -21 -21 -20 -19 -19 -18 -18 -18 -18 -17 -17 -16 -16 -16
Height
5727 5731 5744 5751 5751 5754 5757 5762 5768 5778 5780 5773 5776 5784 5791 5799 5803 5807 5811 5813 5817 5819 5822 5823 5823 5827 5826 5826 5826 5826 5828 5830 5830 5833 5835 5835 5835 5835 5836 5837 5838 5839 5840 5841
5712 5719 5735 5731 5739 5742 5745 5748 5757 5763 5764 5757 5762 5770 5782 5784 5793 5800 5802 5805 5807 5810 5810 5812 5812 5814 5816 5817 5815 5816 5817 5818 5820 5822 5824 5825 5827 5827 5829 5830 5831 5832 5833 5833
5700 5716 5717 5720 5727 5731 5734 5738 5746 5748 5751 5749 5749 5754 5769 5774 5782 5787 5795 5795 5798 5799 5800 5801 5802 5801 5803 5807 5805 5804 5805 5806 5809 5811 5812 5815 5817 5821 5822 5822 5821 5821 5821 5822
5688 5705 5705 5706 5713 5720 5721 5732 5730 5734 5734 5738 5738 5736 5755 5763 5771 5780 5783 5784 5787 5789 5789 5790 5790 5791 5789 5793 5793 5792 5795 5795 5798 5799 5801 5804 5807 5810 5814 5813 5813 5813 5813 5815
5684 5691 5694 5695 5710 5708 5714 5717 5718 5720 5721 5723 5729 5724 5747 5751 5760 5771 5773 5774 5776 5775 5777 5778 5778 5778 5780 5780 5781 5782 5782 5785 5786 5787 5789 5792 5796 5801 5801 5804 5805 5805 5805 5806
5673 5676 5677 5686 5694 5695 5702 5706 5708 5708 5710 5704 5721 5717 5725 5745 5756 5762 5764 5764 5765 5764 5766 5769 5769 5766 5771 5770 5768 5769 5771 5772 5774 5775 5777 5779 5784 5788 5788 5792 5795 5795 5795 5797
5664 5666 5672 5677 5682 5685 5689 5695 5695 5695 5695 5696 5713 5702 5708 5738 5750 5748 5753 5754 5754 5753 5754 5755 5757 5756 5757 5758 5757 5759 5761 5762 5764 5767 5768 5769 5772 5774 5776 5780 5784 5785 5786 5788
5653 5657 5664 5670 5673 5679 5680 5685 5684 5684 5686 5690 5692 5687 5707 5724 5737 5737 5739 5738 5739 5742 5740 5741 5743 5744 5744 5746 5747 5748 5751 5754 5753 5754 5758 5759 5760 5762 5765 5768 5771 5774 5775 5777
5645 5649 5655 5659 5663 5666 5672 5672 5682 5674 5676 5672 5677 5682 5697 5714 5723 5725 5724 5723 5724 5727 5728 5728 5729 5732 5733 5734 5735 5736 5739 5741 5741 5744 5745 5746 5747 5748 5751 5754 5757 5760 5763 5765
5636 5640 5644 5648 5650 5654 5658 5669 5666 5665 5664 5663 5665 5674 5683 5706 5711 5710 5706 5705 5708 5711 5713 5716 5717 5720 5722 5722 5722 5723 5724 5728 5731 5731 5733 5735 5734 5735 5738 5740 5744 5747 5749 5751
5629 5633 5636 5636 5641 5646 5650 5652 5654 5655 5654 5656 5657 5660 5682 5686 5690 5691 5692 5691 5693 5695 5700 5702 5704 5706 5708 5708 5708 5710 5710 5713 5717 5720 5722 5724 5724 5728 5728 5729 5731 5734 5737 5738
5622 5624 5626 5628 5632 5636 5639 5643 5644 5640 5647 5646 5646 5649 5673 5674 5674 5675 5676 5677 5679 5683 5688 5689 5691 5694 5697 5697 5696 5697 5697 5698 5701 5706 5709 5712 5715 5718 5720 5721 5721 5722 5725 5726
5614 5616 5619 5621 5624 5627 5628 5631 5633 5634 5637 5636 5637 5643 5669 5662 5661 5662 5663 5666 5666 5670 5671 5673 5676 5678 5679 5680 5681 5682 5685 5686 5688 5691 5696 5700 5702 5704 5706 5708 5710 5710 5712 5715
5604 5607 5610 5614 5616 5619 5619 5622 5623 5624 5624 5629 5627 5634 5645 5650 5648 5649 5652 5656 5659 5657 5653 5654 5656 5656 5658 5663 5668 5670 5671 5673 5675 5678 5682 5685 5687 5689 5692 5694 5696 5700 5699 5700
5597 5600 5603 5604 5607 5608 5611 5613 5614 5614 5619 5615 5625 5621 5634 5638 5636 5636 5635 5633 5633 5633 5635 5637 5641 5644 5647 5652 5654 5658 5661 5662 5663 5668 5670 5672 5673 5675 5679 5682 5684 5685 5687 5689
5590 5593 5596 5597 5599 5602 5602 5605 5604 5604 5605 5606 5609 5612 5625 5620 5616 5614 5613 5615 5617 5621 5624 5624 5625 5629 5633 5635 5639 5642 5644 5648 5649 5652 5655 5656 5657 5660 5663 5667 5670 5672 5673 5675
5581 5585 5588 5589 5591 5592 5594 5596 5596 5596 5596 5597 5597 5606 5610 5599 5602 5605 5606 5604 5604 5605 5609 5609 5609 5611 5615 5619 5622 5626 5631 5634 5639 5638 5636 5637 5640 5646 5649 5651 5654 5658 5660 5660
5574 5576 5578 5579 5582 5581 5586 5586 5586 5587 5588 5587 5589 5592 5593 5589 5589 5592 5590 5587 5585 5587 5590 5591 5593 5597 5598 5600 5604 5610 5613 5617 5619 5622 5621 5624 5627 5630 5632 5635 5638 5640 5642 5645
5566 5567 5569 5571 5574 5576 5575 5577 5576 5576 5580 5580 5580 5582 5582 5579 5575 5576 5575 5573 5572 5572 5575 5576 5577 5578 5580 5583 5586 5591 5594 5598 5601 5603 5606 5607 5609 5613 5615 5618 5620 5622 5624 5627
5558 5559 5562 5563 5564 5564 5566 5565 5567 5569 5567 5570 5571 5570 5569 5566 5563 5562 5561 5560 5558 5556 5556 5559 5561 5563 5563 5565 5567 5571 5575 5577 5581 5585 5588 5591 5593 5595 5598 5602 5604 5605 5607 5610
5550 5552 5554 5555 5554 5555 5556 5558 5557 5557 5563 5557 5556 5557 5556 5555 5551 5549 5549 5549 5546 5545 5543 5541 5544 5546 5547 5548 5550 5554 5556 5559 5562 5566 5570 5573 5574 5577 5580 5582 5586 5589 5590 5592
5542 5542 5543 5544 5544 5546 5549 5547 5547 5548 5547 5546 5545 5544 5544 5543 5540 5534 5532 5533 5535 5533 5530 5527 5527 5529 5529 5530 5530 5534 5538 5540 5543 5547 5550 5553 5555 5557 5560 5563 5567 5570 5572 5574
5532 5534 5535 5536 5536 5537 5536 5536 5535 5536 5535 5533 5532 5532 5530 5529 5527 5522 5518 5515 5513 5515 5514 5511 5510 5511 5511 5512 5513 5515 5517 5521 5525 5528 5531 5534 5536 5539 5541 5543 5547 5550 5553 5556
5523 5524 5525 5525 5527 5526 5525 5524 5524 5523 5522 5521 5519 5517 5516 5514 5511 5508 5503 5497 5494 5492 5493 5492 5491 5491 5492 5492 5494 5494 5497 5500 5505 5510 5512 5514 5517 5519 5521 5524 5528 5531 5535 5536
5515 5515 5515 5514 5515 5514 5514 5514 5513 5510 5508 5506 5504 5501 5499 5497 5495 5490 5486 5480 5475 5472 5470 5470 5470 5471 5471 5472 5473 5474 5476 5479 5484 5488 5492 5494 5496 5499 5502 5505 5508 5511 5514 5517
5505 5506 5504 5503 5501 5501 5501 5500 5498 5496 5493 5491 5488 5485 5481 5477 5475 5470 5466 5460 5454 5450 5448 5447 5446 5448 5450 5450 5451 5453 5455 5458 5461 5466 5470 5474 5476 5479 5482 5485 5488 5490 5493 5495
Wind_Speed
70 70 71 70 69 69 69 71 72 70 65 65 68 69 66 62 57 55 51 42 38 40 46 47 52 48 45 49 47 51 48 41 40 37 34 34 33 32 33 33 36 38 39 38
72 75 70 70 68 64 64 68 73 72 69 70 71 72 68 67 61 57 49 47 42 41 47 49 52 53 50 45 47 49 50 47 43 41 38 36 38 35 32 31 32 33 35 37
72 71 64 67 65 65 65 65 64 67 61 65 64 72 71 69 63 57 53 43 41 42 45 50 54 56 54 44 41 54 48 49 48 44 43 40 39 36 33 31 32 32 35 37
65 63 63 63 62 61 64 63 60 56 60 65 60 63 67 66 63 53 46 47 43 44 47 51 53 57 55 46 39 40 56 48 46 47 46 42 40 38 34 36 35 34 35 35
67 62 58 61 61 60 59 54 59 58 58 60 57 62 68 56 51 43 40 42 44 44 44 48 47 56 57 51 44 33 43 55 41 44 44 45 42 38 39 38 38 37 36 35
54 58 56 52 54 60 55 58 56 60 60 62 63 69 58 59 50 46 50 50 47 48 48 48 42 47 56 55 47 37 33 41 40 42 41 43 43 41 43 40 38 39 40 38
51 51 49 54 50 52 54 56 58 61 57 65 56 66 79 58 55 57 57 53 51 53 51 50 52 47 51 56 53 46 39 40 37 40 44 41 43 44 45 43 41 41 41 39
42 49 48 44 47 52 51 51 55 57 61 63 63 69 64 63 57 55 55 55 53 45 45 48 54 52 51 55 54 51 44 41 40 43 41 40 44 46 46 46 47 44 42 42
40 42 45 45 47 49 47 53 50 56 56 58 65 68 64 53 48 53 54 50 51 45 45 47 50 46 47 51 52 50 47 44 44 40 41 46 46 45 44 44 47 48 45 43
41 41 40 38 42 46 50 50 52 53 54 54 54 52 65 59 55 56 51 52 54 46 45 47 47 52 49 50 47 49 48 45 43 46 45 44 45 37 34 42 46 46 45 44
40 41 41 40 39 40 42 46 51 55 56 55 41 44 41 44 49 53 54 53 50 46 45 49 48 46 44 41 45 45 47 47 46 46 46 46 46 43 41 38 43 46 46 46
39 40 38 37 36 37 39 40 43 51 52 53 54 54 36 35 45 44 46 49 50 53 48 49 53 45 41 40 42 43 46 55 52 53 50 48 47 45 45 44 41 42 45 51
35 37 38 38 38 37 38 39 42 45 47 52 55 56 40 41 35 48 44 57 52 51 54 56 59 54 49 46 44 47 49 50 54 49 50 50 48 50 47 45 47 44 46 50
34 37 39 37 37 37 37 36 38 41 44 44 47 48 46 49 55 55 56 53 56 54 56 55 55 60 54 47 45 46 47 50 49 48 50 54 51 49 50 47 48 48 49 51
28 31 33 37 39 39 39 38 40 43 40 45 41 46 40 40 45 51 57 58 62 62 63 60 60 60 60 50 51 53 53 53 54 52 49 50 53 53 52 50 55 52 49 45
30 30 29 33 35 36 38 36 41 44 46 45 44 44 38 47 52 52 55 59 61 62 58 60 59 62 60 57 55 54 55 57 55 54 54 54 55 55 54 55 59 56 56 52
30 30 30 33 34 38 37 36 39 41 42 43 44 41 42 50 48 52 58 62 62 64 68 66 65 59 57 60 65 64 58 57 59 58 58 62 63 60 59 60 60 62 62 60
31 32 34 35 36 39 34 35 34 36 38 38 42 42 43 48 51 51 52 56 58 60 57 60 65 67 65 61 63 65 65 63 64 67 66 63 64 64 64 66 65 63 65 64
33 34 34 35 34 33 35 33 35 37 36 39 42 41 41 44 49 48 48 55 60 60 61 61 60 62 64 65 65 64 64 71 68 68 67 69 69 65 64 65 66 64 65 65
36 33 33 33 33 34 35 39 37 36 41 39 38 40 42 46 49 49 50 54 57 60 64 64 64 63 64 60 58 61 65 61 64 73 72 72 69 69 67 65 64 65 64 64
32 32 30 30 34 36 36 37 37 40 36 38 40 41 43 45 50 53 53 51 56 57 59 65 67 66 63 65 65 61 62 68 66 64 65 68 75 78 75 70 66 62 62 62
30 29 31 33 34 29 28 31 32 31 32 34 36 38 41 44 49 54 57 59 56 58 60 62 63 66 69 67 66 67 63 61 65 69 69 69 70 74 77 75 72 69 66 64
32 30 31 31 30 30 29 31 34 34 35 37 40 42 45 46 48 51 54 58 61 59 59 63 65 64 63 69 70 72 70 69 63 62 65 69 71 72 72 78 77 74 71 69
32 33 33 32 32 33 34 37 39 40 42 44 47 50 54 55 57 56 58 60 62 62 61 61 65 66 66 64 64 67 70 69 68 67 67 66 64 66 70 71 75 77 70 68
34 35 35 36 38 40 41 43 44 48 51 53 56 58 60 62 62 64 66 66 65 65 66 66 64 64 67 67 66 66 68 72 69 66 68 69 66 62 64 64 63 66 64 60
37 38 39 41 43 45 47 48 51 56 57 59 60 61 64 67 68 68 70 72 72 70 69 69 69 67 65 68 67 68 69 70 71 67 64 67 65 63 60 59 57 56 56 54
Wind_Direction
250 250 252 256 256 256 256 257 258 258 259 259 259 261 262 263 262 266 274 275 273 276 270 269 267 264 265 270 271 259 255 257 259 258 258 260 256 253 253 248 247 249 252 256
248 250 250 248 250 250 251 254 256 255 255 259 258 258 259 260 261 264 264 262 269 268 263 263 266 262 260 262 265 265 255 254 257 253 255 254 257 257 256 256 255 256 258 259
249 251 248 249 249 248 247 250 253 255 252 254 260 259 255 257 260 260 264 261 263 265 266 266 261 260 259 256 259 267 261 251 254 255 254 254 255 260 258 255 249 247 247 250
247 247 245 243 245 246 246 249 249 250 249 248 251 256 254 255 260 250 253 263 270 264 265 267 265 256 255 251 247 256 267 258 248 253 252 255 256 256 258 254 251 250 252 254
247 248 248 247 247 247 248 246 247 248 250 247 239 247 249 250 238 240 251 263 267 264 270 272 267 259 252 250 249 249 258 271 256 248 253 254 255 258 255 255 253 253 251 252
244 244 241 245 244 243 245 245 246 248 248 250 239 247 243 233 243 255 259 260 262 265 266 269 265 270 254 250 245 242 245 258 269 271 257 252 252 253 255 250 250 253 254 254
242 243 245 246 242 241 244 246 247 248 251 250 248 254 249 241 249 257 254 254 261 267 269 266 266 269 260 247 247 245 241 249 252 265 268 257 252 250 252 250 250 251 252 256
244 242 244 248 247 246 244 245 247 250 250 249 249 253 253 254 247 249 252 254 255 259 263 264 260 261 258 246 249 250 244 243 245 251 257 262 256 251 254 253 252 252 253 249
249 248 245 244 247 245 245 245 249 253 252 255 251 251 252 252 248 251 257 255 254 260 257 264 256 258 256 250 253 252 252 248 248 249 261 254 253 244 248 253 250 251 251 252
246 248 246 245 245 248 248 247 248 249 253 256 259 258 254 247 254 254 253 255 254 253 252 260 257 260 260 250 254 254 255 253 249 251 250 261 266 260 250 254 252 250 249 251
245 250 252 250 251 251 249 247 247 249 252 254 265 257 253 248 245 250 250 251 253 248 248 248 246 246 248 245 249 253 256 257 250 251 256 258 263 265 271 271 259 256 253 252
245 247 250 252 255 255 253 251 250 250 249 253 257 252 241 247 233 242 235 242 244 242 242 243 240 235 240 250 250 249 250 252 254 251 255 255 256 260 267 271 271 271 258 255
246 245 251 252 253 255 255 252 250 253 254 255 259 255 236 242 245 248 251 244 247 247 245 245 245 245 256 265 261 251 249 253 254 258 254 256 256 260 257 261 268 263 259 262
242 242 242 249 256 254 255 253 255 256 255 256 258 257 244 245 249 250 248 245 240 249 253 256 257 251 255 260 262 261 255 252 253 255 256 256 260 254 257 257 261 266 260 253
240 243 245 244 246 250 249 253 256 259 259 256 258 258 254 251 251 250 250 251 250 254 259 261 260 260 261 262 263 265 264 259 258 257 253 256 255 257 256 254 257 258 260 258
247 243 244 246 248 248 252 253 255 256 256 260 263 262 259 256 253 253 254 253 254 255 255 259 260 261 258 259 259 260 251 257 260 258 256 254 255 256 260 261 261 260 257 255
239 240 244 246 246 249 253 254 256 261 263 264 262 262 257 256 259 254 252 255 254 254 253 255 257 258 256 254 255 258 255 251 257 261 256 253 255 256 257 261 260 261 262 259
241 245 243 244 245 250 260 261 260 259 259 260 265 263 260 261 260 259 259 259 260 259 259 259 258 255 258 255 253 253 253 253 249 251 258 257 255 255 255 256 261 257 259 262
243 242 246 249 253 260 260 260 261 263 261 261 260 260 262 266 270 268 264 263 263 262 259 259 260 260 259 256 255 252 251 245 249 252 251 255 258 255 255 257 259 260 259 259
240 241 245 254 261 268 270 266 265 269 267 271 275 268 263 262 263 266 268 267 267 268 265 263 264 264 261 262 264 262 255 252 253 251 253 252 253 256 257 258 259 261 263 262
243 244 251 257 258 261 267 273 275 270 278 273 272 273 270 267 265 262 262 264 266 266 268 268 265 263 263 265 265 261 260 257 255 256 254 256 256 256 258 257 260 262 264 266
243 248 250 252 258 266 268 267 272 275 274 275 277 277 275 274 272 271 268 265 264 265 267 268 268 268 267 265 267 264 257 257 260 261 261 260 259 258 258 258 259 260 262 267
244 253 254 251 257 266 272 275 277 280 281 284 286 287 287 288 285 282 278 273 270 266 263 264 264 265 265 265 265 266 266 262 259 257 258 260 262 261 260 259 260 262 265 265
247 247 253 256 262 268 272 277 280 282 284 286 287 289 291 292 291 289 286 282 278 273 270 267 262 263 263 262 262 262 264 265 264 261 256 256 256 256 258 257 257 259 260 260
247 253 259 263 267 271 274 278 282 283 283 285 288 288 288 290 289 288 287 284 281 277 274 272 269 263 260 261 260 260 260 262 262 262 262 261 261 257 253 253 254 255 256 259
257 264 266 269 272 275 277 280 282 282 284 286 288 289 291 291 291 290 288 286 282 278 275 271 269 267 262 260 259 258 258 258 260 259 257 258 257 257 255 254 254 256 258 261